Regional Weather Roundup
Issued by NWS

Home | Current Version | Previous Version | Graphics & Text | Print | Product List | Glossary On
Versions: 1 2 3 4 5 6 7 8 9 10 11 12 13 14 15 16 17 18 19 20 21 22 23 24 25 26 27 28 29 30 31 32 33 34 35 36 37 38 39 40 41 42 43 44 45 46 47 48 49 50
000
ASUS43 KFSD 181610
RWRSD

WEATHER ROUNDUP FOR SOUTH DAKOTA
NATIONAL WEATHER SERVICE SIOUX FALLS SD
1000 AM CST SUN FEB 18 2018

NOTE: "FAIR" INDICATES FEW OR NO CLOUDS BELOW 12,000 FEET WITH NO
SIGNIFICANT WEATHER AND/OR OBSTRUCTIONS TO VISIBILITY.


SDZ001>005-009-010-012>017-181700-
NORTHWEST AND NORTH CENTRAL SOUTH DAKOTA

CITY           SKY/WX    TMP DP  RH WIND       PRES   REMARKS
BUFFALO          N/A     15  10  80 N20       29.54R WCI  -2
FAITH            N/A     18  18 100 N21       29.55R WCI   1
MOBRIDGE       CLOUDY    22  17  81 N16       29.54R WCI   8
$$

SDZ012>016-024>037-041>051-057-063-072>074-181700-
SOUTHWEST AND SOUTH CENTRAL SOUTH DAKOTA

CITY           SKY/WX    TMP DP  RH WIND       PRES   REMARKS
RAPID CTY ARPT CLOUDY    29  26  89 N21       29.53R WCI  16
PIERRE         CLOUDY    25  22  88 NW21      29.50R WCI  11
CUSTER         PTSUNNY   34  20  56 VRB7      29.48R WCI  28
ELLSWORTH AFB  PTSUNNY   27  27  99 N23G31    29.53  WCI  12
PHILIP         PTSUNNY   23  19  85 NW14      29.56R WCI  11
PINE RIDGE     PTSUNNY   32  24  72 E8        29.53R WCI  25
SPEARFISH      LGT SNOW  21  19  93 NW14G20   29.58R WCI   8
WINNER         FAIR      41  27  57 W8        29.50R
$$

SDZ004>011-016>023-039-040-181700-
NORTHEAST SOUTH DAKOTA

CITY           SKY/WX    TMP DP  RH WIND       PRES   REMARKS
ABERDEEN       CLOUDY    29  23  78 N12       29.52F WCI  19
WATERTOWN      CLOUDY    34  24  67 S13       29.47F WCI  25
BROOKINGS      CLOUDY    36  24  62 S18G31    29.51F
SISSETON         N/A     28  22  78 SE12      29.56F WCI  18
$$

SDZ017-020-022-023-036>040-048>070-181700-
SOUTHEAST SOUTH DAKOTA

CITY           SKY/WX    TMP DP  RH WIND       PRES   REMARKS
SIOUX FALLS    CLOUDY    39  27  62 S23G35    29.53F
HURON          CLOUDY    36  25  64 S9        29.46S
CHAMBERLAIN    CLOUDY    40  29  64 SW8       29.47S
MITCHELL       CLOUDY    41  26  55 SW10      29.50R
YANKTON        CLOUDY    42  27  55 S24G39    29.52F
$$

ABBREVIATIONS USED IN REMARKS
   TC - TEMPERATURE IN CELSIUS
  WCI - WIND CHILL INDEX
   HX - HEAT INDEX
  VSB - VISIBILITY




USA.gov is the U.S. government's official web portal to all federal, state and local government web resources and services.